Weather reports worldwide

Advertisment
Cap Bear, France (7749): temperature & dewpoint: 10.01.2018 20:00:00 - 16.01.2018 20:00:00 (CET)Cap Bear, France (7749): wind speed & gusts: 10.01.2018 20:00:00 - 16.01.2018 20:00:00 (CET)Cap Bear, France (7749): wind direction: 10.01.2018 20:00:00 - 16.01.2018 20:00:00 (CET)Cap Bear, France (7749): reduced air pressure: 10.01.2018 20:00:00 - 16.01.2018 20:00:00 (CET)Cap Bear, France (7749): visibility: 10.01.2018 20:00:00 - 16.01.2018 20:00:00 (CET)Cap Bear, France (7749): precipitation: 10.01.2018 20:00:00 - 16.01.2018 20:00:00 (CET)
Date & Time tt [°C] td [°C] ff [km/h] ff [kn] fx [km/h] fx [kn] dd ppp [hPa] vv [km] rr [mm]
16.01.2018 20:00:00 14,3 4,8 18 10 30 16 NW 1016,6 - 0,0
16.01.2018 19:00:00 15,4 3,8 21 12 39 21 SSW 1016,2 20 0,0
16.01.2018 18:00:00 15,8 4,2 26 14 32 18 SW 1016,2 - 0,0
16.01.2018 17:00:00 17,0 4,0 15 8 25 13 SSW 1017,0 - 0,0
16.01.2018 16:00:00 15,0 6,8 15 8 24 13 S 1016,9 25 0,0
16.01.2018 15:00:00 16,9 5,5 10 5 16 9 SSE 1017,2 - 0,0
16.01.2018 14:00:00 15,4 6,4 12 6 22 12 S 1018,1 - 0,0
16.01.2018 13:00:00 14,7 5,7 18 10 22 12 SSE 1018,6 25 0,0
16.01.2018 12:00:00 16,3 2,7 11 6 19 11 SSE 1019,1 - 0,0
16.01.2018 11:00:00 16,1 3,2 14 8 20 11 S 1019,2 - 0,0
16.01.2018 10:00:00 12,8 4,0 10 5 26 14 S 1019,2 25 0,0
16.01.2018 09:00:00 14,5 0,7 16 9 22 12 SSW 1018,4 - 0,0
16.01.2018 08:00:00 11,0 0,4 13 7 18 10 S 1017,9 - 0,0
16.01.2018 07:00:00 11,2 0,6 7 4 19 10 SSW 1017,8 20 0,0
16.01.2018 06:00:00 10,1 3,1 9 5 23 12 ENE 1017,8 - 0,0
16.01.2018 05:00:00 11,4 1,9 20 11 29 15 S 1017,7 - 0,0
16.01.2018 04:00:00 10,1 3,6 9 5 23 12 SSW 1018,7 20 0,0
16.01.2018 03:00:00 10,0 3,7 18 10 25 13 SSW 1019,1 - 0,0
16.01.2018 02:00:00 9,6 5,8 21 11 24 13 S 1019,6 - 0,0
16.01.2018 01:00:00 9,8 5,2 4 2 23 12 SW 1020,2 - 0,0
16.01.2018 00:00:00 9,5 6,2 8 4 22 12 NNW 1020,8 - 0,0
15.01.2018 23:00:00 10,0 6,0 6 4 13 7 S 1020,5 - 0,0
15.01.2018 22:00:00 9,9 6,4 5 3 12 6 N 1021,0 - 0,0
15.01.2018 21:00:00 10,1 6,1 4 2 13 7 ENE 1020,8 - 0,0
15.01.2018 20:00:00 10,3 5,5 16 9 21 11 SW 1020,9 - 0,0
15.01.2018 19:00:00 10,1 6,1 6 3 22 12 S 1021,1 - 0,0
15.01.2018 18:00:00 10,5 6,6 22 12 29 16 S 1021,3 - 0,0
15.01.2018 17:00:00 10,6 5,8 16 9 24 13 SSE 1022,0 - 0,0
15.01.2018 16:00:00 11,2 5,5 17 9 21 12 SSE 1022,3 30 0,0
15.01.2018 15:00:00 10,7 5,0 11 6 15 8 E 1022,0 - 0,0
15.01.2018 14:00:00 12,0 6,1 9 5 23 12 NE 1021,8 - 0,0
15.01.2018 13:00:00 10,9 5,2 18 10 27 15 NNW 1023,2 30 0,0
15.01.2018 12:00:00 10,7 4,2 24 13 35 19 NW 1024,4 - 0,0
15.01.2018 11:00:00 10,2 4,3 27 15 35 19 NW 1024,4 - 0,0
15.01.2018 10:00:00 9,6 3,6 27 15 40 22 NW 1024,0 30 0,0
15.01.2018 09:00:00 8,7 3,5 27 14 45 25 NW 1023,4 - 0,0
15.01.2018 08:00:00 8,4 4,4 28 15 50 27 NW 1022,8 - 0,0
15.01.2018 07:00:00 8,5 4,3 34 19 50 27 NW 1022,2 15 0,0
15.01.2018 06:00:00 8,4 4,8 36 19 54 29 NW 1021,9 - 0,0
15.01.2018 05:00:00 8,2 5,7 39 21 60 32 NW 1021,6 - 0,0
15.01.2018 04:00:00 8,2 5,7 50 27 63 34 NNW 1021,3 - 0,2
15.01.2018 03:00:00 8,2 5,7 46 25 63 34 NW 1021,2 - 0,2
15.01.2018 02:00:00 8,6 5,2 44 24 56 30 NW 1020,8 - 0,0
15.01.2018 01:00:00 8,9 4,5 35 19 56 30 NW 1020,9 - 0,0
15.01.2018 00:00:00 8,7 4,5 36 20 59 32 NW 1020,5 - 0,0
14.01.2018 23:00:00 8,5 4,7 35 19 59 32 NW 1020,0 - 0,0
14.01.2018 22:00:00 8,4 5,1 40 21 61 33 NW 1019,3 - 0,0
14.01.2018 21:00:00 8,6 4,6 40 21 63 34 NW 1018,6 - 0,0
14.01.2018 20:00:00 8,5 5,4 40 22 58 31 NW 1018,2 - 0,0
14.01.2018 19:00:00 8,1 5,6 37 20 54 29 NW 1017,6 10 0,0
14.01.2018 18:00:00 8,0 6,3 33 18 46 25 NW 1017,3 - 0,0
14.01.2018 17:00:00 8,7 7,0 36 20 42 23 NNW 1016,5 - 1,0
14.01.2018 16:00:00 9,2 7,3 40 21 47 25 N 1015,8 10 1,2
14.01.2018 15:00:00 9,2 6,6 24 13 34 18 N 1015,8 - 0,6
14.01.2018 14:00:00 9,7 6,2 27 14 32 17 N 1015,5 - 0,0
14.01.2018 13:00:00 9,4 4,8 21 11 25 13 NNW 1015,9 - 0,0
14.01.2018 12:00:00 9,4 5,6 17 9 22 12 N 1016,4 - 0,0
14.01.2018 11:00:00 8,6 5,7 16 9 27 15 NW 1016,3 - 0,0
14.01.2018 10:00:00 8,8 5,9 16 9 19 10 NNW 1015,5 15 0,2
14.01.2018 09:00:00 8,7 5,6 3 2 8 4 NNE 1015,1 - 0,6
14.01.2018 08:00:00 9,1 6,7 6 4 25 13 NNW 1014,6 - 0,2
14.01.2018 07:00:00 9,6 6,5 18 10 25 14 SW 1013,9 20 0,0
14.01.2018 06:00:00 9,8 6,7 13 7 23 12 SW 1013,8 - 0,0
14.01.2018 05:00:00 10,0 7,4 21 11 31 17 S 1013,2 - 0,0
14.01.2018 04:00:00 10,3 8,1 13 7 38 20 SSW 1013,6 - 0,0
14.01.2018 03:00:00 10,1 8,7 31 17 46 25 SSE 1013,6 - 0,2
14.01.2018 02:00:00 10,4 8,5 28 15 49 26 S 1013,9 - 0,2
14.01.2018 01:00:00 11,1 8,5 32 17 58 31 S 1014,2 - 0,2
14.01.2018 00:00:00 10,8 8,2 26 14 62 33 S 1015,3 - 0,0
13.01.2018 23:00:00 11,5 7,6 48 26 72 39 S 1014,7 - 0,0
13.01.2018 22:00:00 12,0 7,7 54 29 86 47 S 1014,2 - 0,0
13.01.2018 21:00:00 12,0 6,7 53 29 71 39 S 1014,3 - 0,0
13.01.2018 20:00:00 11,9 6,0 47 25 69 37 S 1014,8 - 0,0
13.01.2018 19:00:00 11,9 5,5 52 28 73 39 S 1014,5 20 0,0
13.01.2018 18:00:00 11,9 5,1 49 27 68 37 S 1014,5 - 0,0
13.01.2018 17:00:00 11,9 5,1 51 28 67 36 S 1014,4 - 0,0
13.01.2018 16:00:00 12,4 4,1 47 26 80 43 S 1014,5 20 0,0
13.01.2018 15:00:00 12,6 3,5 57 31 81 44 S 1014,5 - 0,0
13.01.2018 14:00:00 12,8 2,6 47 25 70 38 S 1015,2 - 0,0
13.01.2018 13:00:00 12,0 2,2 47 25 72 39 S 1016,7 20 0,0
13.01.2018 12:00:00 11,1 0,5 37 20 62 33 S 1017,7 - 0,0
13.01.2018 11:00:00 11,3 1,0 28 15 44 24 S 1018,7 - 0,0
13.01.2018 10:00:00 7,1 2,4 7 4 14 8 SE 1019,4 20 0,0
13.01.2018 09:00:00 7,2 3,6 7 4 15 8 S 1019,9 - 0,0
13.01.2018 08:00:00 5,7 2,9 6 3 12 7 S 1020,0 - 0,0
13.01.2018 07:00:00 7,0 2,9 7 4 11 6 S 1020,3 20 0,0
13.01.2018 06:00:00 6,9 4,2 9 5 13 7 SE 1020,7 - 0,0
13.01.2018 05:00:00 6,3 3,8 6 3 10 5 ESE 1021,1 - 0,0
13.01.2018 04:00:00 6,8 3,9 3 2 9 5 E 1021,6 - 0,0
13.01.2018 03:00:00 8,4 1,3 3 1 21 12 SE 1022,1 - 0,0
13.01.2018 02:00:00 9,2 0,6 16 9 31 17 WNW 1022,1 - 0,0
13.01.2018 01:00:00 9,5 1,1 22 12 41 22 WNW 1022,7 - 0,0
13.01.2018 00:00:00 9,1 1,7 25 13 42 23 WNW 1023,4 - 0,0
12.01.2018 23:00:00 8,1 2,7 28 15 37 20 WNW 1023,6 - 0,0
12.01.2018 22:00:00 7,9 3,2 18 10 36 19 NW 1023,9 - 0,0
12.01.2018 21:00:00 8,2 3,2 19 11 44 24 NW 1023,7 - 0,0
12.01.2018 20:00:00 8,5 3,5 37 20 50 27 NNW 1022,9 - 0,0
12.01.2018 19:00:00 9,3 4,5 45 24 57 31 NNW 1022,1 18 0,0
12.01.2018 18:00:00 10,1 3,8 49 26 71 38 NNW 1021,5 - 0,0
12.01.2018 17:00:00 10,6 3,4 63 34 80 43 NNW 1021,0 - 0,0
12.01.2018 16:00:00 11,0 3,5 70 38 90 48 NNW 1019,8 20 0,0
12.01.2018 15:00:00 11,5 2,5 74 40 96 52 NW 1019,6 - 0,0
12.01.2018 14:00:00 11,2 2,0 68 37 94 51 NW 1019,2 - 0,0
12.01.2018 13:00:00 11,0 1,8 76 41 96 52 NW 1019,7 20 0,0
12.01.2018 12:00:00 10,5 2,3 73 40 96 52 NNW 1020,7 - 0,0
12.01.2018 11:00:00 9,9 2,7 77 41 93 50 NW 1020,9 - 0,0
12.01.2018 10:00:00 9,0 3,2 55 30 66 36 NW 1021,6 25 0,0
12.01.2018 09:00:00 7,9 2,6 37 20 72 39 NW 1022,1 - 0,0
12.01.2018 08:00:00 8,2 3,2 57 31 75 40 NW 1021,6 - 0,0
12.01.2018 07:00:00 8,3 3,3 56 31 79 42 NW 1021,3 20 0,0
12.01.2018 06:00:00 8,4 3,0 61 33 83 45 NW 1020,7 - 0,0
12.01.2018 05:00:00 8,1 2,7 53 29 91 49 NW 1019,8 - 0,0
12.01.2018 04:00:00 8,3 2,3 52 28 94 51 NW 1019,3 20 0,0
12.01.2018 03:00:00 8,7 2,5 79 43 95 52 NW 1018,5 - 0,0
12.01.2018 02:00:00 8,6 2,6 55 30 104 56 NW 1018,7 - 0,0
12.01.2018 01:00:00 8,6 2,6 65 35 103 56 NW 1018,0 - 0,0
12.01.2018 00:00:00 8,5 2,9 69 38 94 51 NW 1017,9 - 0,0
11.01.2018 23:00:00 8,7 3,1 79 43 99 54 NW 1017,6 - 0,0
11.01.2018 22:00:00 8,6 3,6 64 35 76 41 NW 1017,6 - 0,0
11.01.2018 21:00:00 8,9 4,1 55 30 82 45 NNW 1017,6 - 0,0
11.01.2018 20:00:00 9,1 3,5 61 33 87 47 NW 1016,8 - 0,0
11.01.2018 19:00:00 9,3 3,5 68 37 88 48 NW 1016,1 - 0,0
11.01.2018 18:00:00 9,5 3,9 59 32 79 43 NW 1015,7 - 0,0
11.01.2018 17:00:00 9,8 4,2 56 30 80 43 NNW 1015,0 - 0,0
11.01.2018 16:00:00 9,9 3,8 67 36 108 59 NNW 1014,2 20 0,0
11.01.2018 15:00:00 9,9 3,4 80 43 102 55 NNW 1013,0 - 0,0
11.01.2018 14:00:00 9,9 3,2 78 42 100 54 NW 1012,4 - 0,0
11.01.2018 13:00:00 9,9 3,0 72 39 94 51 NNW 1013,2 20 0,0
11.01.2018 12:00:00 9,7 3,2 71 39 101 55 NNW 1013,9 - 0,0
11.01.2018 11:00:00 10,0 3,3 70 38 88 48 NNW 1013,5 - 0,0
11.01.2018 10:00:00 10,0 3,3 67 36 88 47 NNW 1013,0 - 0,0
11.01.2018 09:00:00 9,9 3,4 73 40 91 49 NNW 1012,0 - 0,0
11.01.2018 08:00:00 9,9 3,2 77 41 98 53 NNW 1011,5 - 0,0
11.01.2018 07:00:00 9,4 3,4 76 41 98 53 NNW 1011,1 15 0,0
11.01.2018 06:00:00 9,3 4,1 67 36 82 44 NNW 1011,0 - 0,0
11.01.2018 05:00:00 8,9 4,5 59 32 75 41 NNW 1011,9 - 0,0
11.01.2018 04:00:00 8,2 5,3 49 26 58 31 NNW 1012,8 15 0,4
11.01.2018 03:00:00 7,1 4,9 45 24 77 42 NW 1013,7 - 1,8
11.01.2018 02:00:00 6,9 4,6 40 22 89 48 NW 1013,9 - 1,0
11.01.2018 01:00:00 8,0 4,4 45 25 85 46 WNW 1013,7 - 0,0
11.01.2018 00:00:00 8,8 3,0 22 12 24 13 NW 1012,4 - 0,0
10.01.2018 23:00:00 9,1 3,5 5 3 19 10 WNW 1012,3 - 0,0
10.01.2018 22:00:00 10,3 2,6 14 8 23 13 SSW 1012,4 - 0,0
10.01.2018 21:00:00 9,7 3,0 15 8 21 11 S 1012,6 - 0,0
10.01.2018 20:00:00 10,0 2,8 10 5 17 9 S 1012,9 - 0,0

tt = temperature
td = dewpoint
ff = wind speed
fx = gusts
dd = wind direction
ppp = reduced air pressure
vv = visibility
rr = precipitation

Next stations